Location: Peebles
(55.6412°N, 3.1714°W)
Time: 20:23:36
(UTC+01:00)

deb Kosmos-2123 - Pass Details

Date: 08 July 2022
Orbit: 942 x 985 km, 82.9° (Epoch: 17 August)

Event Time Altitude Azimuth Distance (km) Brightness Sun altitude
Exits shadow 00:48:13 15° 162° (SSE) 2,416 ? -11.6°
Maximum altitude 00:53:20 51° 91° (E) 1,223 ? -11.7°
Drops below altitude 10° 00:59:21 10° 18° (NNE) 2,733 ? -11.8°
Sets 01:01:55 0° 14° (NNE) 3,678 ? -11.8°
